Overview Statistics Trail Chart Weather Telemetry Raw packets
 

This is the latest recevied weather packets stored in our database for station/object VE6HFD-WX. If no packets are shown the sender has not sent any weather packets the latest 10 day(s).

<< 1 2 3 4 5 >>
Time Temp. Humidity Pressure Rain* Wind** Luminosity Snow
1778044117 0.56° C 56% 1020.2 hPa 0 mm - - -
1778043787 0.56° C 57% 1020.2 hPa 0 mm - - -
1778043487 0.56° C 59% 1020.3 hPa 0 mm - - -
1778043157 1.11° C 60% 1020.3 hPa 0 mm - - -
1778042857 1.11° C 59% 1020.3 hPa 0 mm - - -
1778042558 1.11° C 60% 1020.3 hPa 0 mm - - -
1778042257 1.67° C 57% 1020.4 hPa 0 mm - - -
1778041960 1.67° C 55% 1020.4 hPa 0 mm - - -
1778041627 1.67° C 55% 1020.4 hPa 0 mm - - -
1778041297 2.22° C 54% 1020.4 hPa 0 mm - - -
1778040968 2.78° C 51% 1020.5 hPa 0 mm - - -
1778040637 2.78° C 48% 1020.4 hPa 0 mm - - -
1778040338 2.78° C 48% 1020.4 hPa 0 mm - - -
1778040041 3.33° C 48% 1020.5 hPa 0 mm - - -
1778039708 3.33° C 47% 1020.5 hPa 0 mm - - -
1778039408 3.33° C 46% 1020.4 hPa 0 mm - - -
1778039078 3.33° C 45% 1020.4 hPa 0 mm - - -
1778038777 3.89° C 44% 1020.4 hPa 0 mm - - -
1778038478 3.89° C 44% 1020.4 hPa 0 mm - - -
1778038147 3.89° C 46% 1020.4 hPa 0 mm - - -
1778037848 4.44° C 45% 1020.4 hPa 0 mm - - -
1778037518 4.44° C 41% 1020.3 hPa 0 mm - - -
1778037188 5° C 40% 1020.3 hPa 0 mm - - -
1778036858 5° C 40% 1020.3 hPa 0 mm - - -
1778036528 5° C 39% 1020.3 hPa 0 mm - - -

* Rain latest hour (hover to see other rain measurements)
** Current wind speed in m/s (hover to see current wind gust speed)